Time,TemperatureF,DewpointF,PressureIn,WindDirection,WindDirectionDegrees,WindSpeedMPH,WindSpeedGustMPH,Humidity,HourlyPrecipIn,Conditions,Clouds,dailyrainin,SoftwareType,DateUTC
2013-05-20 00:01:00,62.5,60.7,30.06,West,270,0.0,0.0,94,0.00,,,0.00,Wunderground v.1.13,2013-05-20 04:01:00,
2013-05-20 00:03:00,62.5,60.7,30.06,West,270,0.0,0.0,94,0.00,,,0.00,Wunderground v.1.13,2013-05-20 04:03:00,
2013-05-20 00:04:00,62.4,60.7,30.06,West,270,0.0,0.0,94,0.00,,,0.00,Wunderground v.1.13,2013-05-20 04:04:00,
2013-05-20 00:06:00,62.4,60.7,30.06,West,270,0.0,0.0,94,0.00,,,0.00,Wunderground v.1.13,2013-05-20 04:06:00,
2013-05-20 00:09:00,62.2,60.5,30.06,West,270,0.0,0.0,94,0.00,,,0.00,Wunderground v.1.13,2013-05-20 04:09:00,
2013-05-20 00:14:00,62.1,60.7,30.06,West,270,0.0,0.0,95,0.00,,,0.00,Wunderground v.1.13,2013-05-20 04:14:00,
2013-05-20 00:20:00,62.0,60.3,30.06,West,270,0.0,0.0,94,0.00,,,0.00,Wunderground v.1.13,2013-05-20 04:20:00,
2013-05-20 00:26:00,61.8,60.1,30.06,West,270,0.0,0.0,94,0.00,,,0.00,Wunderground v.1.13,2013-05-20 04:26:00,
2013-05-20 00:31:00,61.6,59.9,30.06,West,270,0.0,0.0,94,0.00,,,0.00,Wunderground v.1.13,2013-05-20 04:31:00,
2013-05-20 00:37:00,61.4,60.0,30.05,West,270,0.0,0.0,95,0.00,,,0.00,Wunderground v.1.13,2013-05-20 04:37:00,
2013-05-20 00:43:00,61.3,59.6,30.05,West,270,0.0,0.0,94,0.00,,,0.00,Wunderground v.1.13,2013-05-20 04:43:00,
2013-05-20 00:48:00,61.3,59.9,30.05,West,270,0.0,0.0,95,0.00,,,0.00,Wunderground v.1.13,2013-05-20 04:48:00,
2013-05-20 00:54:00,61.2,59.8,30.05,West,270,0.0,0.0,95,0.00,,,0.00,Wunderground v.1.13,2013-05-20 04:54:00,
2013-05-20 00:59:00,61.1,59.7,30.05,West,270,0.0,0.0,95,0.00,,,0.00,Wunderground v.1.13,2013-05-20 04:59:00,
2013-05-20 01:04:00,61.0,59.6,30.06,West,270,0.0,0.0,95,0.00,,,0.00,Wunderground v.1.13,2013-05-20 05:04:00,
2013-05-20 01:10:00,60.8,59.4,30.06,West,270,0.0,0.0,95,0.00,,,0.00,Wunderground v.1.13,2013-05-20 05:10:00,
2013-05-20 01:16:00,60.6,59.2,30.06,West,270,0.0,0.0,95,0.00,,,0.00,Wunderground v.1.13,2013-05-20 05:16:00,
2013-05-20 01:21:00,60.5,59.1,30.06,West,270,0.0,0.0,95,0.00,,,0.00,Wunderground v.1.13,2013-05-20 05:21:00,
2013-05-20 01:27:00,60.4,59.0,30.06,West,270,0.0,0.0,95,0.00,,,0.00,Wunderground v.1.13,2013-05-20 05:27:00,
2013-05-20 01:33:00,60.4,59.0,30.06,West,270,0.0,0.0,95,0.00,,,0.00,Wunderground v.1.13,2013-05-20 05:33:00,
2013-05-20 01:38:00,60.4,59.0,30.06,West,270,0.0,0.0,95,0.00,,,0.00,Wunderground v.1.13,2013-05-20 05:38:00,
2013-05-20 01:44:00,60.3,58.9,30.06,West,270,0.0,0.0,95,0.00,,,0.00,Wunderground v.1.13,2013-05-20 05:44:00,
2013-05-20 01:50:00,60.3,58.9,30.06,West,270,0.0,0.0,95,0.00,,,0.00,Wunderground v.1.13,2013-05-20 05:50:00,
2013-05-20 01:55:00,60.4,59.3,30.06,West,270,0.0,2.0,96,0.00,,,0.00,Wunderground v.1.13,2013-05-20 05:55:00,
2013-05-20 02:01:00,60.5,59.4,30.06,West,270,0.0,0.0,96,0.00,,,0.00,Wunderground v.1.13,2013-05-20 06:01:00,
2013-05-20 02:07:00,60.5,59.4,30.06,West,270,0.0,0.0,96,0.00,,,0.00,Wunderground v.1.13,2013-05-20 06:07:00,
2013-05-20 02:12:00,60.5,59.4,30.06,West,270,0.0,0.0,96,0.00,,,0.00,Wunderground v.1.13,2013-05-20 06:12:00,
2013-05-20 02:18:00,60.4,59.3,30.06,West,270,0.0,0.0,96,0.00,,,0.00,Wunderground v.1.13,2013-05-20 06:18:00,
2013-05-20 02:24:00,60.4,59.3,30.06,West,270,0.0,0.0,96,0.00,,,0.00,Wunderground v.1.13,2013-05-20 06:24:00,
2013-05-20 02:29:00,60.3,59.2,30.06,West,270,0.0,0.0,96,0.00,,,0.00,Wunderground v.1.13,2013-05-20 06:29:00,
2013-05-20 02:35:00,60.3,59.2,30.06,West,270,0.0,0.0,96,0.00,,,0.00,Wunderground v.1.13,2013-05-20 06:35:00,
2013-05-20 02:41:00,60.3,59.2,30.07,West,270,0.0,0.0,96,0.00,,,0.00,Wunderground v.1.13,2013-05-20 06:41:00,
2013-05-20 02:46:00,60.3,59.2,30.06,West,270,0.0,0.0,96,0.00,,,0.00,Wunderground v.1.13,2013-05-20 06:46:00,
2013-05-20 02:52:00,60.3,59.2,30.06,West,270,0.0,0.0,96,0.00,,,0.00,Wunderground v.1.13,2013-05-20 06:52:00,
2013-05-20 02:57:00,60.4,59.3,30.06,West,270,0.0,0.0,96,0.00,,,0.00,Wunderground v.1.13,2013-05-20 06:57:00,
2013-05-20 03:03:00,60.6,59.7,30.06,West,270,0.0,0.0,97,0.00,,,0.00,Wunderground v.1.13,2013-05-20 07:03:00,
2013-05-20 03:09:00,60.8,59.9,30.06,West,270,0.0,0.0,97,0.00,,,0.00,Wunderground v.1.13,2013-05-20 07:09:00,
2013-05-20 03:15:00,60.8,59.7,30.07,West,270,0.0,0.0,96,0.00,,,0.00,Wunderground v.1.13,2013-05-20 07:15:00,
2013-05-20 03:20:00,60.9,59.8,30.07,West,270,0.0,0.0,96,0.00,,,0.00,Wunderground v.1.13,2013-05-20 07:20:00,
2013-05-20 03:26:00,60.9,60.0,30.07,West,270,0.0,0.0,97,0.00,,,0.00,Wunderground v.1.13,2013-05-20 07:26:00,
2013-05-20 03:31:00,61.0,60.1,30.07,West,270,0.0,0.0,97,0.00,,,0.00,Wunderground v.1.13,2013-05-20 07:31:00,
2013-05-20 03:37:00,61.1,60.2,30.07,West,270,0.0,0.0,97,0.00,,,0.00,Wunderground v.1.13,2013-05-20 07:37:00,
2013-05-20 03:43:00,61.2,60.3,30.07,West,270,0.0,0.0,97,0.00,,,0.00,Wunderground v.1.13,2013-05-20 07:43:00,
2013-05-20 03:49:00,61.3,60.4,30.07,West,270,0.0,0.0,97,0.00,,,0.00,Wunderground v.1.13,2013-05-20 07:49:00,
2013-05-20 03:54:00,61.4,60.5,30.07,West,270,0.0,0.0,97,0.00,,,0.00,Wunderground v.1.13,2013-05-20 07:54:00,
2013-05-20 04:00:00,61.4,60.5,30.07,West,270,0.0,0.0,97,0.00,,,0.00,Wunderground v.1.13,2013-05-20 08:00:00,
2013-05-20 04:06:00,61.4,60.5,30.07,West,270,0.0,0.0,97,0.00,,,0.00,Wunderground v.1.13,2013-05-20 08:06:00,
2013-05-20 04:11:00,61.5,60.6,30.07,West,270,0.0,0.0,97,0.00,,,0.00,Wunderground v.1.13,2013-05-20 08:11:00,
2013-05-20 04:17:00,61.4,60.5,30.07,West,270,0.0,0.0,97,0.00,,,0.00,Wunderground v.1.13,2013-05-20 08:17:00,
2013-05-20 04:22:00,61.4,60.5,30.07,West,270,0.0,0.0,97,0.00,,,0.00,Wunderground v.1.13,2013-05-20 08:22:00,
2013-05-20 04:28:00,61.3,60.4,30.07,West,270,0.0,0.0,97,0.00,,,0.00,Wunderground v.1.13,2013-05-20 08:28:00,
2013-05-20 04:34:00,61.3,60.4,30.08,West,270,0.0,0.0,97,0.00,,,0.00,Wunderground v.1.13,2013-05-20 08:34:00,
2013-05-20 04:40:00,61.3,60.4,30.08,West,270,0.0,0.0,97,0.00,,,0.00,Wunderground v.1.13,2013-05-20 08:40:00,
2013-05-20 04:45:00,61.3,60.4,30.08,West,270,0.0,0.0,97,0.00,,,0.00,Wunderground v.1.13,2013-05-20 08:45:00,
2013-05-20 04:51:00,61.2,60.3,30.08,West,270,0.0,0.0,97,0.00,,,0.00,Wunderground v.1.13,2013-05-20 08:51:00,
2013-05-20 04:57:00,61.3,60.4,30.07,West,270,0.0,0.0,97,0.00,,,0.00,Wunderground v.1.13,2013-05-20 08:57:00,
2013-05-20 05:02:00,61.4,60.5,30.07,West,270,0.0,0.0,97,0.00,,,0.00,Wunderground v.1.13,2013-05-20 09:02:00,
2013-05-20 05:08:00,61.4,60.5,30.07,West,270,0.0,0.0,97,0.00,,,0.00,Wunderground v.1.13,2013-05-20 09:08:00,
2013-05-20 05:14:00,61.4,60.5,30.07,West,270,0.0,0.0,97,0.00,,,0.00,Wunderground v.1.13,2013-05-20 09:14:00,
2013-05-20 05:19:00,61.4,60.5,30.07,West,270,0.0,0.0,97,0.00,,,0.00,Wunderground v.1.13,2013-05-20 09:19:00,
2013-05-20 05:24:00,61.5,60.6,30.08,West,270,0.0,0.0,97,0.00,,,0.00,Wunderground v.1.13,2013-05-20 09:24:00,
2013-05-20 05:30:00,61.5,60.6,30.08,West,270,0.0,0.0,97,0.00,,,0.00,Wunderground v.1.13,2013-05-20 09:30:00,
2013-05-20 05:35:00,61.4,60.5,30.08,West,270,0.0,0.0,97,0.00,,,0.00,Wunderground v.1.13,2013-05-20 09:35:00,
2013-05-20 05:40:00,61.3,60.4,30.08,West,270,0.0,0.0,97,0.00,,,0.00,Wunderground v.1.13,2013-05-20 09:40:00,
2013-05-20 05:46:00,61.2,60.3,30.08,West,270,0.0,0.0,97,0.00,,,0.00,Wunderground v.1.13,2013-05-20 09:46:00,
2013-05-20 05:52:00,61.1,60.2,30.08,West,270,0.0,0.0,97,0.00,,,0.00,Wunderground v.1.13,2013-05-20 09:52:00,
2013-05-20 05:57:00,61.0,60.1,30.08,West,270,0.0,0.0,97,0.00,,,0.00,Wunderground v.1.13,2013-05-20 09:57:00,
2013-05-20 06:02:00,60.9,60.0,30.08,West,270,0.0,0.0,97,0.00,,,0.00,Wunderground v.1.13,2013-05-20 10:02:00,
2013-05-20 06:08:00,60.9,60.0,30.08,West,270,0.0,0.0,97,0.00,,,0.00,Wunderground v.1.13,2013-05-20 10:08:00,
2013-05-20 06:13:00,60.8,59.9,30.08,West,270,0.0,0.0,97,0.00,,,0.00,Wunderground v.1.13,2013-05-20 10:13:00,
2013-05-20 06:19:00,60.8,59.9,30.09,West,270,0.0,0.0,97,0.00,,,0.00,Wunderground v.1.13,2013-05-20 10:19:00,
2013-05-20 06:25:00,60.9,60.0,30.09,West,270,0.0,0.0,97,0.00,,,0.00,Wunderground v.1.13,2013-05-20 10:25:00,
2013-05-20 06:30:00,60.9,60.0,30.09,West,270,0.0,0.0,97,0.00,,,0.00,Wunderground v.1.13,2013-05-20 10:30:00,
2013-05-20 06:36:00,61.1,60.5,30.09,West,270,0.0,0.0,98,0.00,,,0.00,Wunderground v.1.13,2013-05-20 10:36:00,
2013-05-20 06:42:00,61.1,60.2,30.09,West,270,0.0,0.0,97,0.00,,,0.00,Wunderground v.1.13,2013-05-20 10:42:00,
2013-05-20 06:47:00,61.2,60.3,30.09,West,270,0.0,0.0,97,0.00,,,0.00,Wunderground v.1.13,2013-05-20 10:47:00,
2013-05-20 06:53:00,61.3,60.4,30.09,West,270,0.0,0.0,97,0.00,,,0.00,Wunderground v.1.13,2013-05-20 10:53:00,
2013-05-20 06:59:00,61.4,60.8,30.09,West,270,0.0,0.0,98,0.00,,,0.00,Wunderground v.1.13,2013-05-20 10:59:00,
2013-05-20 07:05:00,61.6,61.0,30.09,West,272,0.0,0.0,98,0.00,,,0.00,Wunderground v.1.13,2013-05-20 11:05:00,
2013-05-20 07:10:00,61.7,61.1,30.09,West,272,0.0,0.0,98,0.00,,,0.00,Wunderground v.1.13,2013-05-20 11:10:00,
2013-05-20 07:16:00,61.8,61.2,30.10,West,272,0.0,0.0,98,0.00,,,0.00,Wunderground v.1.13,2013-05-20 11:16:00,
2013-05-20 07:22:00,61.8,61.2,30.10,West,272,0.0,0.0,98,0.00,,,0.00,Wunderground v.1.13,2013-05-20 11:22:00,
2013-05-20 07:28:00,61.8,61.2,30.10,West,272,0.0,0.0,98,0.00,,,0.00,Wunderground v.1.13,2013-05-20 11:28:00,
2013-05-20 07:34:00,61.8,61.2,30.10,West,272,0.0,0.0,98,0.00,,,0.00,Wunderground v.1.13,2013-05-20 11:34:00,
2013-05-20 07:40:00,62.0,61.4,30.10,West,272,0.0,0.0,98,0.00,,,0.00,Wunderground v.1.13,2013-05-20 11:40:00,
2013-05-20 07:45:00,62.1,61.5,30.10,West,272,0.0,0.0,98,0.00,,,0.00,Wunderground v.1.13,2013-05-20 11:45:00,
2013-05-20 07:51:00,62.3,61.7,30.11,West,272,0.0,0.0,98,0.00,,,0.00,Wunderground v.1.13,2013-05-20 11:51:00,
2013-05-20 07:57:00,62.6,62.0,30.11,West,272,0.0,0.0,98,0.00,,,0.00,Wunderground v.1.13,2013-05-20 11:57:00,
2013-05-20 08:03:00,63.2,62.6,30.11,West,272,0.0,0.0,98,0.00,,,0.00,Wunderground v.1.13,2013-05-20 12:03:00,
2013-05-20 08:08:00,63.6,63.0,30.11,West,272,0.0,0.0,98,0.00,,,0.00,Wunderground v.1.13,2013-05-20 12:08:00,
2013-05-20 08:14:00,63.9,63.3,30.11,West,272,0.0,0.0,98,0.00,,,0.00,Wunderground v.1.13,2013-05-20 12:14:00,
2013-05-20 08:19:00,64.2,63.6,30.11,West,272,0.0,0.0,98,0.00,,,0.00,Wunderground v.1.13,2013-05-20 12:19:00,
2013-05-20 08:25:00,64.3,63.7,30.11,West,272,0.0,0.0,98,0.00,,,0.00,Wunderground v.1.13,2013-05-20 12:25:00,
2013-05-20 08:30:00,64.6,64.0,30.12,West,272,0.0,0.0,98,0.00,,,0.00,Wunderground v.1.13,2013-05-20 12:30:00,
2013-05-20 08:36:00,64.9,64.6,30.12,West,272,0.0,0.0,99,0.00,,,0.00,Wunderground v.1.13,2013-05-20 12:36:00,
2013-05-20 08:42:00,65.1,64.5,30.12,West,272,0.0,0.0,98,0.00,,,0.00,Wunderground v.1.13,2013-05-20 12:42:00,
2013-05-20 08:48:00,65.0,64.4,30.13,West,272,0.0,0.0,98,0.00,,,0.00,Wunderground v.1.13,2013-05-20 12:48:00,
2013-05-20 08:53:00,64.8,64.2,30.13,West,272,0.0,0.0,98,0.00,,,0.00,Wunderground v.1.13,2013-05-20 12:53:00,
2013-05-20 08:59:00,64.8,64.2,30.13,West,272,0.0,0.0,98,0.00,,,0.00,Wunderground v.1.13,2013-05-20 12:59:00,
2013-05-20 09:05:00,64.9,64.3,30.14,West,272,0.0,0.0,98,0.00,,,0.00,Wunderground v.1.13,2013-05-20 13:05:00,
2013-05-20 09:11:00,65.0,64.4,30.14,West,272,0.0,0.0,98,0.00,,,0.00,Wunderground v.1.13,2013-05-20 13:11:00,
2013-05-20 09:16:00,65.0,64.4,30.14,West,272,0.0,0.0,98,0.00,,,0.00,Wunderground v.1.13,2013-05-20 13:16:00,
2013-05-20 09:22:00,65.1,64.5,30.14,West,272,0.0,3.0,98,0.00,,,0.00,Wunderground v.1.13,2013-05-20 13:22:00,
2013-05-20 09:28:00,65.3,64.7,30.14,West,272,1.0,4.0,98,0.00,,,0.00,Wunderground v.1.13,2013-05-20 13:28:00,
2013-05-20 09:33:00,65.3,64.7,30.15,West,272,1.0,1.0,98,0.00,,,0.00,Wunderground v.1.13,2013-05-20 13:33:00,
2013-05-20 09:39:00,65.6,65.0,30.15,West,272,0.0,1.0,98,0.00,,,0.00,Wunderground v.1.13,2013-05-20 13:39:00,
2013-05-20 09:45:00,65.8,65.2,30.15,West,273,1.0,1.0,98,0.00,,,0.00,Wunderground v.1.13,2013-05-20 13:45:00,
2013-05-20 09:50:00,66.3,65.7,30.15,West,273,1.0,2.0,98,0.00,,,0.00,Wunderground v.1.13,2013-05-20 13:50:00,
2013-05-20 09:56:00,67.0,66.1,30.15,West,273,1.0,4.0,97,0.00,,,0.00,Wunderground v.1.13,2013-05-20 13:56:00,
2013-05-20 10:01:00,68.1,66.9,30.15,WNW,284,1.0,3.0,96,0.00,,,0.00,Wunderground v.1.13,2013-05-20 14:01:00,
2013-05-20 10:07:00,69.5,67.4,30.14,WNW,284,0.0,1.0,93,0.00,,,0.00,Wunderground v.1.13,2013-05-20 14:07:00,
2013-05-20 10:13:00,71.0,67.6,30.14,WNW,284,0.0,0.0,89,0.00,,,0.00,Wunderground v.1.13,2013-05-20 14:13:00,
2013-05-20 10:19:00,72.2,67.1,30.15,WNW,284,0.0,1.0,84,0.00,,,0.00,Wunderground v.1.13,2013-05-20 14:19:00,
2013-05-20 10:24:00,72.8,66.6,30.15,WNW,284,0.0,0.0,81,0.00,,,0.00,Wunderground v.1.13,2013-05-20 14:24:00,
2013-05-20 10:30:00,73.4,66.9,30.14,WNW,284,0.0,1.0,80,0.00,,,0.00,Wunderground v.1.13,2013-05-20 14:30:00,
2013-05-20 10:35:00,73.8,66.9,30.14,WNW,284,0.0,0.0,79,0.00,,,0.00,Wunderground v.1.13,2013-05-20 14:35:00,
2013-05-20 10:41:00,74.3,67.0,30.14,WNW,285,0.0,0.0,78,0.00,,,0.00,Wunderground v.1.13,2013-05-20 14:41:00,
2013-05-20 10:46:00,74.7,67.8,30.14,West,259,1.0,3.0,79,0.00,,,0.00,Wunderground v.1.13,2013-05-20 14:46:00,
2013-05-20 10:52:00,74.6,67.3,30.15,SW,236,2.0,4.0,78,0.00,,,0.00,Wunderground v.1.13,2013-05-20 14:52:00,
2013-05-20 10:57:00,74.6,67.3,30.15,SSE,155,3.0,5.0,78,0.00,,,0.00,Wunderground v.1.13,2013-05-20 14:57:00,
2013-05-20 11:02:00,74.4,67.1,30.15,SSE,154,2.0,2.0,78,0.00,,,0.00,Wunderground v.1.13,2013-05-20 15:02:00,
2013-05-20 11:08:00,74.4,67.1,30.15,SSE,154,1.0,3.0,78,0.00,,,0.00,Wunderground v.1.13,2013-05-20 15:08:00,
2013-05-20 11:13:00,74.3,67.0,30.15,SSE,154,1.0,1.0,78,0.00,,,0.00,Wunderground v.1.13,2013-05-20 15:13:00,
2013-05-20 11:19:00,74.3,67.0,30.15,SSE,154,1.0,6.0,78,0.00,,,0.00,Wunderground v.1.13,2013-05-20 15:19:00,
2013-05-20 11:25:00,74.2,66.9,30.15,SSE,153,1.0,1.0,78,0.00,,,0.00,Wunderground v.1.13,2013-05-20 15:25:00,
2013-05-20 11:30:00,74.2,66.9,30.15,SSE,153,0.0,0.0,78,0.00,,,0.00,Wunderground v.1.13,2013-05-20 15:30:00,
2013-05-20 11:35:00,74.3,67.0,30.15,SE,130,1.0,5.0,78,0.00,,,0.00,Wunderground v.1.13,2013-05-20 15:35:00,
2013-05-20 11:41:00,74.8,68.2,30.14,SE,133,2.0,3.0,80,0.00,,,0.00,Wunderground v.1.13,2013-05-20 15:41:00,
2013-05-20 11:46:00,75.6,67.9,30.14,SE,133,1.0,1.0,77,0.00,,,0.00,Wunderground v.1.13,2013-05-20 15:46:00,
2013-05-20 11:52:00,76.1,68.0,30.14,SSE,161,2.0,5.0,76,0.00,,,0.00,Wunderground v.1.13,2013-05-20 15:52:00,
2013-05-20 11:58:00,76.7,67.4,30.13,SSE,161,2.0,4.0,73,0.00,,,0.00,Wunderground v.1.13,2013-05-20 15:58:00,
2013-05-20 12:03:00,78.0,68.2,30.13,SSE,161,1.0,2.0,72,0.00,,,0.00,Wunderground v.1.13,2013-05-20 16:03:00,
2013-05-20 12:08:00,78.7,68.9,30.13,SSE,159,1.0,6.0,72,0.00,,,0.00,Wunderground v.1.13,2013-05-20 16:08:00,
2013-05-20 12:14:00,78.4,68.2,30.13,South,181,3.0,7.0,71,0.00,,,0.00,Wunderground v.1.13,2013-05-20 16:14:00,
2013-05-20 12:19:00,78.7,69.3,30.13,SSW,192,3.0,5.0,73,0.00,,,0.00,Wunderground v.1.13,2013-05-20 16:19:00,
2013-05-20 12:25:00,79.0,68.4,30.13,SSW,205,4.0,4.0,70,0.00,,,0.00,Wunderground v.1.13,2013-05-20 16:25:00,
2013-05-20 12:30:00,79.4,68.3,30.13,SSW,206,3.0,3.0,69,0.00,,,0.00,Wunderground v.1.13,2013-05-20 16:30:00,
2013-05-20 12:36:00,79.9,68.8,30.13,SSW,200,1.0,3.0,69,0.00,,,0.00,Wunderground v.1.13,2013-05-20 16:36:00,
2013-05-20 12:41:00,79.7,69.5,30.12,South,180,2.0,2.0,71,0.00,,,0.00,Wunderground v.1.13,2013-05-20 16:41:00,
2013-05-20 12:47:00,78.9,68.3,30.12,South,178,1.0,3.0,70,0.00,,,0.00,Wunderground v.1.13,2013-05-20 16:47:00,
2013-05-20 12:52:00,78.7,68.1,30.12,South,175,2.0,3.0,70,0.00,,,0.00,Wunderground v.1.13,2013-05-20 16:52:00,
2013-05-20 12:58:00,79.1,68.9,30.12,South,176,2.0,5.0,71,0.00,,,0.00,Wunderground v.1.13,2013-05-20 16:58:00,
2013-05-20 13:03:00,79.7,69.0,30.12,South,181,2.0,4.0,70,0.00,,,0.00,Wunderground v.1.13,2013-05-20 17:03:00,
2013-05-20 13:08:00,80.1,69.0,30.12,South,182,3.0,3.0,69,0.00,,,0.00,Wunderground v.1.13,2013-05-20 17:08:00,
2013-05-20 13:14:00,80.4,69.3,30.12,South,182,1.0,2.0,69,0.00,,,0.00,Wunderground v.1.13,2013-05-20 17:14:00,
2013-05-20 13:20:00,80.8,69.2,30.12,SSW,194,2.0,3.0,68,0.00,,,0.00,Wunderground v.1.13,2013-05-20 17:20:00,
2013-05-20 13:25:00,81.4,69.4,30.12,SSW,202,3.0,3.0,67,0.00,,,0.00,Wunderground v.1.13,2013-05-20 17:25:00,
2013-05-20 13:31:00,81.3,69.3,30.11,SW,215,3.0,4.0,67,0.00,,,0.00,Wunderground v.1.13,2013-05-20 17:31:00,
2013-05-20 13:37:00,81.5,69.0,30.11,SW,226,2.0,3.0,66,0.00,,,0.00,Wunderground v.1.13,2013-05-20 17:37:00,
2013-05-20 13:43:00,81.6,69.6,30.11,SW,226,1.0,1.0,67,0.00,,,0.00,Wunderground v.1.13,2013-05-20 17:43:00,
2013-05-20 13:48:00,81.8,68.9,30.11,SW,226,0.0,1.0,65,0.00,,,0.00,Wunderground v.1.13,2013-05-20 17:48:00,
2013-05-20 13:54:00,81.7,69.7,30.11,SW,226,0.0,0.0,67,0.00,,,0.00,Wunderground v.1.13,2013-05-20 17:54:00,
2013-05-20 14:00:00,82.0,69.5,30.11,SW,226,1.0,4.0,66,0.00,,,0.00,Wunderground v.1.13,2013-05-20 18:00:00,
2013-05-20 14:06:00,81.5,69.5,30.11,SW,224,2.0,5.0,67,0.00,,,0.00,Wunderground v.1.13,2013-05-20 18:06:00,
2013-05-20 14:11:00,81.2,68.3,30.11,SW,224,2.0,2.0,65,0.00,,,0.00,Wunderground v.1.13,2013-05-20 18:11:00,
2013-05-20 14:17:00,81.3,68.9,30.10,SW,224,2.0,4.0,66,0.00,,,0.00,Wunderground v.1.13,2013-05-20 18:17:00,
2013-05-20 14:22:00,81.2,68.3,30.11,SW,224,1.0,2.0,65,0.00,,,0.00,Wunderground v.1.13,2013-05-20 18:22:00,
2013-05-20 14:28:00,81.2,68.3,30.10,SW,224,0.0,1.0,65,0.00,,,0.00,Wunderground v.1.13,2013-05-20 18:28:00,
2013-05-20 14:34:00,82.0,69.1,30.10,SW,224,1.0,5.0,65,0.00,,,0.00,Wunderground v.1.13,2013-05-20 18:34:00,
2013-05-20 14:40:00,82.7,69.7,30.10,SW,224,1.0,1.0,65,0.00,,,0.00,Wunderground v.1.13,2013-05-20 18:40:00,
2013-05-20 14:45:00,83.1,69.7,30.10,SSW,213,1.0,1.0,64,0.00,,,0.00,Wunderground v.1.13,2013-05-20 18:45:00,
2013-05-20 14:51:00,82.9,69.5,30.10,SSW,212,2.0,5.0,64,0.00,,,0.00,Wunderground v.1.13,2013-05-20 18:51:00,
2013-05-20 14:56:00,82.9,69.9,30.10,SSW,212,2.0,3.0,65,0.00,,,0.00,Wunderground v.1.13,2013-05-20 18:56:00,
2013-05-20 15:02:00,82.9,69.0,30.09,SSW,212,1.0,4.0,63,0.00,,,0.00,Wunderground v.1.13,2013-05-20 19:02:00,
2013-05-20 15:07:00,82.9,69.0,30.09,SSW,212,2.0,6.0,63,0.00,,,0.00,Wunderground v.1.13,2013-05-20 19:07:00,
2013-05-20 15:12:00,82.9,68.5,30.09,SSW,212,3.0,7.0,62,0.00,,,0.00,Wunderground v.1.13,2013-05-20 19:12:00,
2013-05-20 15:18:00,82.8,68.9,30.09,SSW,213,3.0,4.0,63,0.00,,,0.00,Wunderground v.1.13,2013-05-20 19:18:00,
2013-05-20 15:24:00,82.8,69.4,30.08,SSW,213,2.0,4.0,64,0.00,,,0.00,Wunderground v.1.13,2013-05-20 19:24:00,
2013-05-20 15:29:00,83.2,69.3,30.08,SW,216,2.0,3.0,63,0.00,,,0.00,Wunderground v.1.13,2013-05-20 19:29:00,
2013-05-20 15:35:00,83.6,69.2,30.08,SW,216,1.0,1.0,62,0.00,,,0.00,Wunderground v.1.13,2013-05-20 19:35:00,
2013-05-20 15:41:00,83.8,69.4,30.08,WSW,248,1.0,4.0,62,0.00,,,0.00,Wunderground v.1.13,2013-05-20 19:41:00,
2013-05-20 15:46:00,83.4,69.0,30.07,WSW,248,1.0,1.0,62,0.00,,,0.00,Wunderground v.1.13,2013-05-20 19:46:00,
2013-05-20 15:52:00,83.4,69.5,30.07,WSW,250,2.0,3.0,63,0.00,,,0.00,Wunderground v.1.13,2013-05-20 19:52:00,
2013-05-20 15:58:00,83.9,70.0,30.07,WSW,250,3.0,5.0,63,0.00,,,0.00,Wunderground v.1.13,2013-05-20 19:58:00,
2013-05-20 16:03:00,84.0,69.1,30.06,WSW,250,2.0,3.0,61,0.00,,,0.00,Wunderground v.1.13,2013-05-20 20:03:00,
2013-05-20 16:08:00,84.1,70.1,30.06,West,264,3.0,6.0,63,0.00,,,0.00,Wunderground v.1.13,2013-05-20 20:08:00,
2013-05-20 16:14:00,84.6,70.1,30.06,West,264,3.0,4.0,62,0.00,,,0.00,Wunderground v.1.13,2013-05-20 20:14:00,
2013-05-20 16:19:00,85.1,68.7,30.06,West,264,2.0,5.0,58,0.00,,,0.00,Wunderground v.1.13,2013-05-20 20:19:00,
2013-05-20 16:25:00,85.2,69.3,30.06,West,265,2.0,2.0,59,0.00,,,0.00,Wunderground v.1.13,2013-05-20 20:25:00,
2013-05-20 16:30:00,85.2,69.7,30.06,West,269,3.0,4.0,60,0.00,,,0.00,Wunderground v.1.13,2013-05-20 20:30:00,
2013-05-20 16:36:00,85.2,68.8,30.06,West,270,3.0,3.0,58,0.00,,,0.00,Wunderground v.1.13,2013-05-20 20:36:00,
2013-05-20 16:41:00,85.0,69.1,30.06,West,270,1.0,1.0,59,0.00,,,0.00,Wunderground v.1.13,2013-05-20 20:41:00,
2013-05-20 16:47:00,85.1,69.7,30.05,West,270,2.0,8.0,60,0.00,,,0.00,Wunderground v.1.13,2013-05-20 20:47:00,
2013-05-20 16:52:00,85.1,69.7,30.05,West,277,4.0,9.0,60,0.00,,,0.00,Wunderground v.1.13,2013-05-20 20:52:00,
2013-05-20 16:58:00,84.9,68.0,30.05,WNW,289,5.0,6.0,57,0.00,,,0.00,Wunderground v.1.13,2013-05-20 20:58:00,
2013-05-20 17:03:00,84.8,67.9,30.05,WNW,289,5.0,6.0,57,0.00,,,0.00,Wunderground v.1.13,2013-05-20 21:03:00,
2013-05-20 17:08:00,84.7,68.8,30.05,WNW,289,4.0,5.0,59,0.00,,,0.00,Wunderground v.1.13,2013-05-20 21:08:00,
2013-05-20 17:14:00,84.3,67.4,30.05,WNW,289,3.0,4.0,57,0.00,,,0.00,Wunderground v.1.13,2013-05-20 21:14:00,
2013-05-20 17:20:00,84.0,67.6,30.04,WNW,289,1.0,1.0,58,0.00,,,0.00,Wunderground v.1.13,2013-05-20 21:20:00,
2013-05-20 17:25:00,83.8,67.4,30.04,WNW,289,0.0,0.0,58,0.00,,,0.00,Wunderground v.1.13,2013-05-20 21:25:00,
2013-05-20 17:31:00,83.8,66.9,30.04,WNW,289,1.0,2.0,57,0.00,,,0.00,Wunderground v.1.13,2013-05-20 21:31:00,
2013-05-20 17:37:00,83.8,67.9,30.04,WNW,289,1.0,2.0,59,0.00,,,0.00,Wunderground v.1.13,2013-05-20 21:37:00,
2013-05-20 17:42:00,83.6,67.8,30.04,WNW,286,3.0,6.0,59,0.00,,,0.00,Wunderground v.1.13,2013-05-20 21:42:00,
2013-05-20 17:48:00,83.3,68.0,30.04,WNW,284,2.0,4.0,60,0.00,,,0.00,Wunderground v.1.13,2013-05-20 21:48:00,
2013-05-20 17:54:00,83.2,67.9,30.04,WNW,284,1.0,2.0,60,0.00,,,0.00,Wunderground v.1.13,2013-05-20 21:54:00,
2013-05-20 17:59:00,83.2,68.3,30.04,WNW,284,1.0,3.0,61,0.00,,,0.00,Wunderground v.1.13,2013-05-20 21:59:00,
2013-05-20 18:04:00,83.3,68.4,30.04,WNW,284,1.0,4.0,61,0.00,,,0.00,Wunderground v.1.13,2013-05-20 22:04:00,
2013-05-20 18:10:00,83.3,68.4,30.03,WNW,284,1.0,4.0,61,0.00,,,0.00,Wunderground v.1.13,2013-05-20 22:10:00,
2013-05-20 18:15:00,83.3,68.4,30.03,WNW,284,1.0,2.0,61,0.00,,,0.00,Wunderground v.1.13,2013-05-20 22:15:00,
2013-05-20 18:21:00,83.2,67.9,30.03,WNW,284,1.0,1.0,60,0.00,,,0.00,Wunderground v.1.13,2013-05-20 22:21:00,
2013-05-20 18:27:00,83.4,68.5,30.03,WNW,284,0.0,0.0,61,0.00,,,0.00,Wunderground v.1.13,2013-05-20 22:27:00,
2013-05-20 18:33:00,83.4,68.1,30.03,WNW,284,1.0,3.0,60,0.00,,,0.00,Wunderground v.1.13,2013-05-20 22:33:00,
2013-05-20 18:38:00,83.5,68.2,30.03,WNW,284,1.0,1.0,60,0.00,,,0.00,Wunderground v.1.13,2013-05-20 22:38:00,
2013-05-20 18:44:00,83.5,67.7,30.03,WNW,284,0.0,1.0,59,0.00,,,0.00,Wunderground v.1.13,2013-05-20 22:44:00,
2013-05-20 18:49:00,83.5,67.7,30.02,WNW,284,1.0,3.0,59,0.00,,,0.00,Wunderground v.1.13,2013-05-20 22:49:00,
2013-05-20 18:55:00,83.3,67.5,30.02,WNW,284,1.0,1.0,59,0.00,,,0.00,Wunderground v.1.13,2013-05-20 22:55:00,
2013-05-20 19:01:00,83.0,68.2,30.02,WNW,284,0.0,1.0,61,0.00,,,0.00,Wunderground v.1.13,2013-05-20 23:01:00,
2013-05-20 19:07:00,82.9,68.1,30.02,WNW,284,1.0,2.0,61,0.00,,,0.00,Wunderground v.1.13,2013-05-20 23:07:00,
2013-05-20 19:12:00,82.9,68.5,30.02,WNW,284,0.0,0.0,62,0.00,,,0.00,Wunderground v.1.13,2013-05-20 23:12:00,
2013-05-20 19:18:00,82.6,68.7,30.02,WNW,284,0.0,0.0,63,0.00,,,0.00,Wunderground v.1.13,2013-05-20 23:18:00,
2013-05-20 19:23:00,82.4,69.9,30.02,WNW,284,0.0,1.0,66,0.00,,,0.00,Wunderground v.1.13,2013-05-20 23:23:00,
2013-05-20 19:29:00,82.2,70.1,30.01,WNW,284,0.0,0.0,67,0.00,,,0.00,Wunderground v.1.13,2013-05-20 23:29:00,
2013-05-20 19:34:00,82.2,71.0,30.01,WNW,284,0.0,0.0,69,0.00,,,0.00,Wunderground v.1.13,2013-05-20 23:34:00,
2013-05-20 19:40:00,81.9,70.7,30.01,WNW,284,0.0,0.0,69,0.00,,,0.00,Wunderground v.1.13,2013-05-20 23:40:00,
2013-05-20 19:45:00,81.8,71.1,30.01,WNW,284,0.0,0.0,70,0.00,,,0.00,Wunderground v.1.13,2013-05-20 23:45:00,
2013-05-20 19:51:00,81.6,70.9,30.01,WNW,284,0.0,0.0,70,0.00,,,0.00,Wunderground v.1.13,2013-05-20 23:51:00,
2013-05-20 19:56:00,81.4,71.1,30.01,WNW,284,0.0,0.0,71,0.00,,,0.00,Wunderground v.1.13,2013-05-20 23:56:00,
2013-05-20 20:02:00,80.7,70.8,30.01,WNW,284,0.0,0.0,72,0.00,,,0.00,Wunderground v.1.13,2013-05-21 00:02:00,
2013-05-20 20:08:00,79.8,70.4,30.01,WNW,284,0.0,0.0,73,0.00,,,0.00,Wunderground v.1.13,2013-05-21 00:08:00,
2013-05-20 20:14:00,79.2,70.2,30.01,WNW,284,0.0,0.0,74,0.00,,,0.00,Wunderground v.1.13,2013-05-21 00:14:00,
2013-05-20 20:19:00,78.3,69.7,30.01,WNW,284,0.0,0.0,75,0.00,,,0.00,Wunderground v.1.13,2013-05-21 00:19:00,
2013-05-20 20:25:00,77.4,69.2,30.01,WNW,284,0.0,0.0,76,0.00,,,0.00,Wunderground v.1.13,2013-05-21 00:25:00,
2013-05-20 20:30:00,76.6,68.8,30.01,WNW,284,0.0,0.0,77,0.00,,,0.00,Wunderground v.1.13,2013-05-21 00:30:00,
2013-05-20 20:36:00,75.8,68.1,30.00,WNW,284,0.0,0.0,77,0.00,,,0.00,Wunderground v.1.13,2013-05-21 00:36:00,
2013-05-20 20:42:00,75.1,67.8,30.00,WNW,284,0.0,0.0,78,0.00,,,0.00,Wunderground v.1.13,2013-05-21 00:42:00,
2013-05-20 20:47:00,74.4,67.1,30.01,WNW,284,0.0,0.0,78,0.00,,,0.00,Wunderground v.1.13,2013-05-21 00:47:00,
2013-05-20 20:53:00,73.6,67.0,30.01,WNW,284,0.0,0.0,80,0.00,,,0.00,Wunderground v.1.13,2013-05-21 00:53:00,
2013-05-20 20:59:00,72.9,66.7,30.01,WNW,284,0.0,0.0,81,0.00,,,0.00,Wunderground v.1.13,2013-05-21 00:59:00,
2013-05-20 21:04:00,72.4,66.6,30.01,WNW,284,0.0,0.0,82,0.00,,,0.00,Wunderground v.1.13,2013-05-21 01:04:00,
2013-05-20 21:09:00,72.0,66.2,30.01,WNW,284,0.0,0.0,82,0.00,,,0.00,Wunderground v.1.13,2013-05-21 01:09:00,
2013-05-20 21:15:00,71.5,66.1,30.01,WNW,284,0.0,0.0,83,0.00,,,0.00,Wunderground v.1.13,2013-05-21 01:15:00,
2013-05-20 21:21:00,71.0,65.9,30.01,WNW,284,0.0,0.0,84,0.00,,,0.00,Wunderground v.1.13,2013-05-21 01:21:00,
2013-05-20 21:26:00,70.6,65.5,30.01,WNW,284,0.0,0.0,84,0.00,,,0.00,Wunderground v.1.13,2013-05-21 01:26:00,
2013-05-20 21:32:00,70.2,65.8,30.02,WNW,284,0.0,0.0,86,0.00,,,0.00,Wunderground v.1.13,2013-05-21 01:32:00,
2013-05-20 21:38:00,69.9,65.5,30.02,WNW,284,0.0,0.0,86,0.00,,,0.00,Wunderground v.1.13,2013-05-21 01:38:00,
2013-05-20 21:44:00,69.6,65.6,30.02,WNW,284,0.0,0.0,87,0.00,,,0.00,Wunderground v.1.13,2013-05-21 01:44:00,
2013-05-20 21:49:00,69.3,65.3,30.02,WNW,284,0.0,0.0,87,0.00,,,0.00,Wunderground v.1.13,2013-05-21 01:49:00,
2013-05-20 21:55:00,69.0,65.0,30.02,WNW,284,0.0,0.0,87,0.00,,,0.00,Wunderground v.1.13,2013-05-21 01:55:00,
2013-05-20 22:00:00,68.8,65.1,30.02,WNW,284,0.0,0.0,88,0.00,,,0.00,Wunderground v.1.13,2013-05-21 02:00:00,
2013-05-20 22:05:00,68.5,64.8,30.02,WNW,284,0.0,0.0,88,0.00,,,0.00,Wunderground v.1.13,2013-05-21 02:05:00,
2013-05-20 22:11:00,68.2,64.5,30.02,WNW,284,0.0,0.0,88,0.00,,,0.00,Wunderground v.1.13,2013-05-21 02:11:00,
2013-05-20 22:16:00,68.0,64.3,30.02,WNW,284,0.0,0.0,88,0.00,,,0.00,Wunderground v.1.13,2013-05-21 02:16:00,
2013-05-20 22:22:00,67.7,64.3,30.02,WNW,284,0.0,0.0,89,0.00,,,0.00,Wunderground v.1.13,2013-05-21 02:22:00,
2013-05-20 22:28:00,67.4,64.0,30.03,WNW,284,0.0,0.0,89,0.00,,,0.00,Wunderground v.1.13,2013-05-21 02:28:00,
2013-05-20 22:34:00,67.2,63.8,30.02,WNW,284,0.0,0.0,89,0.00,,,0.00,Wunderground v.1.13,2013-05-21 02:34:00,
2013-05-20 22:39:00,67.0,64.0,30.02,WNW,284,0.0,0.0,90,0.00,,,0.00,Wunderground v.1.13,2013-05-21 02:39:00,
2013-05-20 22:45:00,66.8,63.8,30.03,WNW,284,0.0,0.0,90,0.00,,,0.00,Wunderground v.1.13,2013-05-21 02:45:00,
2013-05-20 22:50:00,66.7,63.7,30.03,WNW,284,0.0,0.0,90,0.00,,,0.00,Wunderground v.1.13,2013-05-21 02:50:00,
2013-05-20 22:56:00,66.5,63.5,30.03,WNW,284,0.0,0.0,90,0.00,,,0.00,Wunderground v.1.13,2013-05-21 02:56:00,
2013-05-20 23:01:00,66.5,63.8,30.03,WNW,284,0.0,0.0,91,0.00,,,0.00,Wunderground v.1.13,2013-05-21 03:01:00,
2013-05-20 23:07:00,66.3,63.6,30.03,WNW,284,0.0,0.0,91,0.00,,,0.00,Wunderground v.1.13,2013-05-21 03:07:00,
2013-05-20 23:13:00,66.1,63.4,30.02,WNW,284,0.0,0.0,91,0.00,,,0.00,Wunderground v.1.13,2013-05-21 03:13:00,
2013-05-20 23:19:00,65.8,63.1,30.03,WNW,284,0.0,0.0,91,0.00,,,0.00,Wunderground v.1.13,2013-05-21 03:19:00,
2013-05-20 23:24:00,65.7,63.0,30.03,WNW,284,0.0,0.0,91,0.00,,,0.00,Wunderground v.1.13,2013-05-21 03:24:00,
2013-05-20 23:30:00,65.5,62.8,30.02,WNW,284,0.0,0.0,91,0.00,,,0.00,Wunderground v.1.13,2013-05-21 03:30:00,
2013-05-20 23:36:00,65.4,62.7,30.02,WNW,284,0.0,0.0,91,0.00,,,0.00,Wunderground v.1.13,2013-05-21 03:36:00,
2013-05-20 23:42:00,65.2,62.5,30.02,WNW,284,0.0,0.0,91,0.00,,,0.00,Wunderground v.1.13,2013-05-21 03:42:00,
2013-05-20 23:48:00,65.0,62.3,30.02,WNW,284,0.0,0.0,91,0.00,,,0.00,Wunderground v.1.13,2013-05-21 03:48:00,
2013-05-20 23:54:00,64.8,62.1,30.02,WNW,284,0.0,0.0,91,0.00,,,0.00,Wunderground v.1.13,2013-05-21 03:54:00,
2013-05-20 23:59:00,64.7,62.0,30.02,WNW,284,0.0,0.0,91,0.00,,,0.00,Wunderground v.1.13,2013-05-21 03:59:00,